Location: Antipolo
(14.5886°N, 121.1757°E)
Time: 18:42:38
(UTC+00:00)

Daily predictions for brighter satellites

Satellite Brightness Start Highest point End
(mag) Time Altitude Azimuth Time Altitude Azimuth Time Altitude Azimuth
ERS-2 4.5 12:03:14 10° NNW 12:06:11 24° WNW 12:09:08 10° SW
Cosmos 1782 Rocket 3.4 12:06:30 10° N 12:10:49 85° W 12:11:14 72° SSW
Ariane H10 4.2 12:14:52 10° SW 12:16:05 14° SW 12:16:05 14° SW
Cosmos 1339 Rocket 4.5 12:19:47 56° ESE 12:20:07 57° E 12:26:11 10° NNE
SL-16 R/B 3.6 12:25:50 23° NE 12:25:50 23° NE 12:28:07 10° NNE
USA 215 3.4 12:16:35 10° NNE 12:23:05 72° NW 12:29:36 10° SW
Cosmos 2322 Rocket 4.3 12:33:16 13° NE 12:33:16 13° NE 12:33:58 10° NE
BREEZE-M DEB (TANK) 4.4 12:26:45 10° WSW 12:29:21 18° WNW 12:30:18 15° NNW
CENTAUR R/B 3.1 12:25:55 10° SW 12:30:54 46° WNW 12:36:31 10° N
Resurs 1-3 4.4 12:32:37 47° N 12:32:37 47° N 12:35:46 10° N
SJ-6B 4.2 12:33:30 36° W 12:33:30 36° W 12:37:17 10° NNW
Ariane Rocket 3.1 12:38:02 70° NNW 12:38:02 70° NNW 12:42:33 10° NNW
Timation 2 Rocket 3.8 12:31:36 10° NNW 12:37:51 82° ENE 12:38:04 81° ESE
OBJECT-B 3.9 12:44:14 14° WNW 12:44:14 14° WNW 12:45:12 10° WNW
Cosmos 1821 Rocket 4.1 12:38:08 10° NNW 12:44:13 66° W 12:45:04 59° SW
Meteor 1-15 Rocket 4.3 12:39:12 10° N 12:44:39 77° N 12:44:39 77° N
MOS 1 4.4 12:45:07 68° WSW 12:45:13 68° WSW 12:50:53 10° NNW
Resurs 01 Rocket 3.7 12:59:48 23° NNW 12:59:48 23° NNW 13:01:31 10° NNW
Atlas Centaur 2 3.5 13:03:21 10° WNW 13:05:35 30° NW 13:05:35 30° NW
Aurora 2 Rocket 4.2 13:01:22 10° WNW 13:09:55 54° N 13:09:55 54° N
Cosmos 2227 Rocket 4.4 13:36:30 10° WNW 13:39:03 18° W 13:39:03 18° W
ATLAS 5 CENTAUR R/B 4.4 16:12:40 47° ENE 16:12:40 47° ENE 16:36:11 10° E
SL-16 R/B 4.5 17:50:48 22° N 17:50:48 22° N 17:52:53 10° N
ADEOS Rocket 4.3 18:03:54 45° E 18:04:10 45° ENE 18:11:10 10° N
CZ-2C R/B 4.1 18:45:40 10° NE 18:49:33 27° E 18:49:33 27° E
Meteor 2-14 Rocket 4.5 18:59:37 72° E 18:59:37 72° E 19:05:36 10° N
Cosmos 1937 Rocket 3.8 19:03:12 10° N 19:08:22 66° ENE 19:08:22 66° ENE
ALOS 4.0 19:09:30 10° NE 19:13:25 27° E 19:15:00 22° SE
IRIDIUM 114 4.4 19:08:27 10° N 19:13:25 75° ENE 19:13:25 75° ENE
Meteor 2-21 4.3 19:17:14 73° W 19:17:14 73° W 19:23:18 10° N
Meteor 2-15 Rocket 4.4 19:12:39 10° NNW 19:18:27 67° WNW 19:18:27 67° WNW
IRIDIUM 103 4.2 19:17:36 10° N 19:22:35 80° NW 19:22:35 80° NW
ASTEX 1 3.5 19:28:55 61° NW 19:28:55 61° NW 19:33:13 10° NNW
CZ-2C R/B 3.2 19:28:23 10° NNE 19:31:31 57° NNE 19:31:31 57° NNE
ARIANE 5 R/B 3.8 19:29:10 10° NNW 19:32:07 26° NW 19:32:07 26° NW
Cosmos 836 Rocket 4.5 19:34:04 63° W 19:34:12 63° WNW 19:39:26 10° N
USA 281 3.1 19:30:11 23° S 19:34:28 69° WSW 19:41:00 10° NNW
Chandra Rocket (1) 3.4 19:32:02 34° W 19:34:52 50° NNW 19:38:45 10° NE
GPS 2-18 Rocket1 4.4 19:35:10 32° N 19:35:28 33° N 19:38:53 10° ENE
PSLV R/B 4.4 19:31:55 10° NNE 19:36:07 48° E 19:37:39 33° SSE
Fermi 4.4 19:38:49 45° SE 19:38:49 45° SE 19:41:44 10° ESE
CZ-4C R/B 1.7 19:37:20 62° SSE 19:37:51 69° ESE 19:42:31 10° NNE
Centaur D-1A AC-32 3.3 19:40:30 27° SSE 19:40:39 27° SSE 19:44:38 10° E
ERBS 3.3 19:43:30 39° NNE 19:43:30 39° NNE 19:45:42 10° NNE
Cosmos 2263 4.0 19:37:33 10° NNW 19:43:08 67° WSW 19:46:26 25° S
Cosmos 1862 3.1 19:44:22 82° S 19:44:32 89° W 19:48:33 10° N
Cosmos 2369 Rocket 2.8 19:41:03 10° NW 19:45:12 36° WNW 19:45:12 36° WNW
Tianhe-1 2.6 19:46:51 31° ESE 19:46:51 31° ESE 19:49:15 10° ENE
CZ-2C R/B 3.2 19:53:58 13° SE 19:54:06 13° SE 19:55:37 10° ESE
Delta 2 Rocket 3.9 19:55:24 34° NW 19:55:38 34° NNW 19:58:51 10° NE
Cosmos 1553 Rocket 4.0 19:50:00 10° NNW 19:56:05 58° W 20:00:08 21° SSW
S3M 3.9 19:51:42 10° N 19:57:52 88° E 20:04:07 10° S
Cosmos 1328 Rocket 3.9 19:54:58 10° N 19:59:16 64° E 20:03:37 10° SSE
GPS 2-17 Rocket1 4.2 19:58:34 20° WNW 20:01:19 40° N 20:05:50 10° ENE
Cosmos 1812 3.9 20:00:12 10° NNE 20:03:49 41° E 20:07:27 10° SSE
Meteor 1-26 Rocket 4.3 19:58:17 10° NNW 20:04:04 63° W 20:10:01 10° S
Cosmos 1271 Rocket 3.5 20:01:54 10° N 20:05:31 51° E 20:09:11 10° SSE
Cosmos 372 Rocket 4.0 20:01:11 10° NNW 20:06:17 54° WSW 20:11:22 10° S
Cosmos 1833 Rocket 3.0 20:01:55 15° S 20:06:38 65° ESE 20:12:12 10° NNE
Cosmos 1408 Rocket 4.2 20:12:24 31° WSW 20:13:21 34° W 20:17:21 10° NNW
Cosmos 2082 Rocket 3.9 20:08:42 10° SSE 20:13:31 30° ESE 20:18:20 10° NE
COSMOS 2406 3.3 20:09:30 13° S 20:14:35 76° ESE 20:20:13 10° NNE
Cosmos 1656 Rocket 4.4 20:14:36 10° NW 20:19:31 31° WSW 20:24:23 10° SSW
Cosmos 1515 Rocket 4.1 20:17:08 10° N 20:21:29 61° E 20:25:52 10° SSE
NOSS 3 (A) 3.7 20:25:25 46° N 20:25:25 46° N 20:26:41 10° NNE
CZ-2C R/B 3.9 20:24:34 10° NNW 20:27:41 17° WNW 20:28:55 16° W
Cosmos 2084 Rocket 3.3 20:28:58 19° SW 20:31:42 63° WNW 20:35:34 10° NNE
Cosmos 2298 Rocket 4.0 20:26:45 10° NNW 20:32:05 83° WSW 20:37:24 10° S
Cosmos 1244 Rocket 4.5 20:29:40 10° S 20:36:00 76° W 20:42:15 10° N
Gbstr 26 Del rocket 4.2 20:32:25 10° SSW 20:36:32 42° ESE 20:41:29 10° NE
ASTRO E2 4.5 20:33:45 10° NW 20:37:19 32° NNE 20:40:53 10° E
Cosmos 1484 Rocket 3.8 20:38:19 10° NNW 20:41:23 25° WNW 20:43:50 13° SW
NOSS 3-4 (A) 3.4 20:35:38 10° SSW 20:41:28 80° ESE 20:47:16 10° NNE
NOSS 3-4 (C) 3.4 20:35:44 10° SSW 20:41:35 78° ESE 20:47:23 10° NNE
Cosmos 44 3.4 20:37:51 10° SSW 20:42:45 73° WNW 20:47:58 10° NNE
Cosmos 1151 Rocket 4.4 20:42:39 10° NW 20:45:38 19° W 20:48:37 10° SW
YAOGAN 6 4.2 20:43:29 10° NNE 20:46:40 34° E 20:49:50 10° SSE
Cosmos 2150 Rocket 4.0 20:41:44 10° NNW 20:46:52 61° WSW 20:52:05 10° S
Meteor 1-20 Rocket 4.4 20:43:17 10° S 20:48:58 82° E 20:54:32 10° N
ALOS 3.9 20:47:40 10° NW 20:50:31 16° WNW 20:53:21 10° WSW
ATLAS 2AS CENTAUR R/B 3.9 20:44:27 10° S 20:51:47 50° ESE 20:59:21 10° NE
SL-08 R/B 4.5 20:46:06 10° S 20:52:19 78° W 20:58:37 10° N
Cosmos 1805 Rocket 3.8 20:48:25 10° SSW 20:52:35 48° W 20:56:46 10° N
Cosmos 1538 Rocket 4.1 20:47:53 10° SSW 20:53:13 72° WNW 20:58:34 10° N
Meteor 1-31 Rocket 2.8 20:50:45 10° N 20:54:33 64° WNW 20:58:19 10° SSW
Landsat 5 4.0 20:51:00 10° SSE 20:54:55 60° ENE 20:58:43 10° N
Meteor 1-27 Rocket 4.2 20:51:31 10° N 20:57:00 65° E 21:02:27 10° SSE
Envisat 3.4 20:55:16 10° NNE 21:00:18 67° ESE 21:05:20 10° S
Ariane 42L Rocket 4.3 20:58:47 10° SW 21:02:01 21° SSE 21:05:58 10° ESE
Cosmos 1602 3.7 20:59:20 10° S 21:03:10 85° W 21:07:02 10° N
Meteor 1-25 Rocket 4.3 21:00:09 10° SSW 21:05:55 71° W 21:11:43 10° N
